Satellite: HRBE Catalog number: 37855 Epoch time: 13052.43927027 Element set: 426 Inclination: 101.7125 deg RA of node: 213.0331 deg Eccentricity: 0.0238641 Arg of perigee: 358.3570 deg Mean anomaly: 001.6810 deg Mean motion: 14.82705660 rev/day Decay rate: 1.689e-05 rev/day^2 Epoch rev: 7129 Checksum: 276
Satellite: RS-39 Catalog number: 38051 Epoch time: 13052.77141204 Element set: 193 Inclination: 051.6371 deg RA of node: 046.1912 deg Eccentricity: 0.0011522 Arg of perigee: 205.7701 deg Mean anomaly: 159.9338 deg Mean motion: 15.29359257 rev/day Decay rate: 1.1657e-04 rev/day^2 Epoch rev: 6010 Checksum: 279
Satellite: E-STAR Catalog number: 38079 Epoch time: 13052.88017930 Element set: 915 Inclination: 069.4855 deg RA of node: 096.6377 deg Eccentricity: 0.0664761 Arg of perigee: 287.9731 deg Mean anomaly: 065.0009 deg Mean motion: 14.34652784 rev/day Decay rate: 4.0266e-04 rev/day^2 Epoch rev: 5314 Checksum: 334
Satellite: GOLIAT Catalog number: 38085 Epoch time: 13052.53083128 Element set: 849 Inclination: 069.4858 deg RA of node: 098.8525 deg Eccentricity: 0.0671530 Arg of perigee: 289.1621 deg Mean anomaly: 063.8061 deg Mean motion: 14.33030652 rev/day Decay rate: 3.7559e-04 rev/day^2 Epoch rev: 5305 Checksum: 314
Satellite: HORYU-2 Catalog number: 38340 Epoch time: 13052.85815023 Element set: 379 Inclination: 098.2039 deg RA of node: 359.6188 deg Eccentricity: 0.0011669 Arg of perigee: 259.8740 deg Mean anomaly: 100.1150 deg Mean motion: 14.70627945 rev/day Decay rate: 1.010e-05 rev/day^2 Epoch rev: 4116 Checksum: 287
Satellite: RS-40 Catalog number: 38736 Epoch time: 13052.57190397 Element set: 193 Inclination: 082.4757 deg RA of node: 227.2175 deg Eccentricity: 0.0020412 Arg of perigee: 211.8874 deg Mean anomaly: 148.0970 deg Mean motion: 12.43229515 rev/day Decay rate: 1.0e-07 rev/day^2 Epoch rev: 2588 Checksum: 293
Satellite: PROITERES Catalog number: 38756 Epoch time: 13052.72533966 Element set: 530 Inclination: 098.2629 deg RA of node: 127.6120 deg Eccentricity: 0.0013733 Arg of perigee: 113.3916 deg Mean anomaly: 246.8706 deg Mean motion: 14.74081312 rev/day Decay rate: 2.50e-06 rev/day^2 Epoch rev: 2438 Checksum: 282
Satellite: RAIKO Catalog number: 38852 Epoch time: 13051.90849292 Element set: 148 Inclination: 051.6464 deg RA of node: 321.0752 deg Eccentricity: 0.0012063 Arg of perigee: 283.9844 deg Mean anomaly: 075.9791 deg Mean motion: 15.61448658 rev/day Decay rate: 4.0980e-04 rev/day^2 Epoch rev: 2162 Checksum: 313
Satellite: FITSAT 1 Catalog number: 38853 Epoch time: 13052.90554585 Element set: 146 Inclination: 051.6479 deg RA of node: 315.0033 deg Eccentricity: 0.0008648 Arg of perigee: 299.9984 deg Mean anomaly: 060.0119 deg Mean motion: 15.63769651 rev/day Decay rate: 5.2201e-04 rev/day^2 Epoch rev: 2184 Checksum: 312
Satellite: TechEdSat Catalog number: 38854 Epoch time: 13052.24536464 Element set: 165 Inclination: 051.6433 deg RA of node: 315.8124 deg Eccentricity: 0.0006199 Arg of perigee: 296.5361 deg Mean anomaly: 063.5001 deg Mean motion: 15.69647499 rev/day Decay rate: 9.7067e-04 rev/day^2 Epoch rev: 2177 Checksum: 316
Satellite: F 1 Catalog number: 38855 Epoch time: 13052.14287525 Element set: 167 Inclination: 051.6438 deg RA of node: 316.6251 deg Eccentricity: 0.0006290 Arg of perigee: 295.9703 deg Mean anomaly: 064.0629 deg Mean motion: 15.68898872 rev/day Decay rate: 8.9343e-04 rev/day^2 Epoch rev: 2164 Checksum: 328
Satellite: WeWish Catalog number: 38856 Epoch time: 13052.88288455 Element set: 191 Inclination: 051.6375 deg RA of node: 306.4880 deg Eccentricity: 0.0006812 Arg of perigee: 237.6346 deg Mean anomaly: 122.4001 deg Mean motion: 15.89539107 rev/day Decay rate: 4.07847e-03 rev/day^2 Epoch rev: 2184 Checksum: 313
/EX